Parsons, KS

4:07 PM CST on November 11, 2019 (GMT -0600)
Tri-City

Weather History for KPPF - October, 2019

Change the Weather History Date:

Sunday, October 20, 2019

  Actual Average Record
Temperature  
Mean Temperature 58 °F -  
Max Temperature 77 °F 68 °F 87 °F (2003)
Min Temperature 42 °F 43 °F 23 °F (1989)
Degree Days  
Heating Degree Days 6    
Growing Degree Days 8 (Base 50)    
Moisture  
Dew Point 50 °F    
Average Humidity 89    
Maximum Humidity 100    
Minimum Humidity 46    
Precipitation  
Precipitation 0.21 in - - ()
Sea Level Pressure  
Sea Level Pressure 29.77 in    
Wind  
Wind Speed 1 mph ()    
Max Wind Speed 13 mph    
Max Gust Speed 31 mph    
Visibility 4.3 miles    
Events Fog , Rain , Thunderstorm    
Averages and records for this station are not official NWS values.
T = Trace of Precipitation, MM = Missing Value Source: Averaged Metar Reports

Daily Weather History Graph

Daily Weather History Graph

Search for Another Location

Airport or City:

Astronomy

Oct. 20, 2019 Rise Set
Actual Time 7:34 AM CDT 6:38 PM CDT
Civil Twilight 7:08 AM CDT 7:04 PM CDT
Nautical Twilight 6:37 AM CDT 7:35 PM CDT
Astronomical Twilight 6:07 AM CDT 8:05 PM CDT
Moon 11:53 PM CDT (10/20) 1:58 PM CDT (10/20)
Length of Visible Light 11h 56m
Length of Day
11h 04m
Waning Gibbous, 59% of the Moon is Illuminated
Oct 20
Waning Gibbous
Oct 21
Last Quarter
Oct 27
New
Nov 4
First Quarter
Nov 12
Full

Hourly Weather History & Observations

Time (CDT) Temp. Dew Point Humidity Pressure Visibility Wind Dir Wind Speed Gust Speed Precip Events Conditions
12:52 AM 50.0 °F 50.0 °F 100% 29.85 in 4.0 mi Calm Calm - N/A   Clear
1:29 AM 51.1 °F 50.0 °F 96% 29.84 in 2.5 mi Calm Calm - N/A   Clear
1:38 AM 50.0 °F 48.9 °F 96% 29.85 in 4.0 mi Calm Calm - N/A   Clear
1:52 AM 48.9 °F 48.9 °F 100% 29.84 in 1.2 mi Calm Calm - N/A   Clear
2:05 AM 48.9 °F 48.9 °F 100% 29.84 in 1.5 mi Calm Calm - N/A   Clear
2:16 AM 48.9 °F 48.0 °F 97% 29.84 in 1.0 mi Calm Calm - N/A   Clear
2:24 AM 48.9 °F 48.9 °F 100% 29.84 in 1.5 mi Calm Calm - N/A   Clear
2:33 AM 48.9 °F 48.9 °F 100% 29.84 in 1.0 mi Calm Calm - N/A   Clear
2:52 AM 48.9 °F 48.0 °F 97% 29.84 in 0.8 mi Calm Calm - N/A   Clear
3:08 AM 46.9 °F 46.9 °F 100% 29.85 in 0.2 mi Calm Calm - N/A Fog Fog
3:49 AM 46.4 °F 46.4 °F 100% 29.85 in 1.0 mi Calm Calm - N/A   Clear
3:52 AM 46.0 °F 46.0 °F 100% 29.84 in 2.0 mi Calm Calm - N/A   Clear
4:01 AM 45.0 °F 45.0 °F 100% 29.85 in 1.2 mi Calm Calm - N/A   Clear
4:04 AM 44.1 °F 44.1 °F 100% 29.85 in 0.8 mi Calm Calm - N/A   Clear
4:17 AM 45.0 °F 45.0 °F 100% 29.84 in 1.2 mi Calm Calm - N/A   Clear
4:19 AM 44.1 °F 44.1 °F 100% 29.84 in 2.0 mi Calm Calm - N/A   Clear
4:41 AM 46.0 °F 46.0 °F 100% 29.83 in 1.2 mi Calm Calm - N/A   Clear
4:44 AM 46.0 °F 46.0 °F 100% 29.83 in 0.8 mi Calm Calm - N/A   Clear
4:52 AM 46.0 °F 46.0 °F 100% 29.82 in 0.8 mi Calm Calm - N/A   Clear
5:02 AM 46.0 °F 46.0 °F 100% 29.83 in 1.2 mi Calm Calm - N/A   Clear
5:07 AM 45.0 °F 45.0 °F 100% 29.83 in 0.8 mi Calm Calm - N/A   Clear
5:19 AM 45.0 °F 45.0 °F 100% 29.83 in 1.2 mi Calm Calm - N/A   Clear
5:22 AM 46.0 °F 46.0 °F 100% 29.83 in 2.0 mi Calm Calm - N/A   Clear
5:49 AM 44.6 °F 44.6 °F 100% 29.83 in 1.2 mi Calm Calm - N/A   Clear
5:52 AM 46.0 °F 46.0 °F 100% 29.83 in 1.0 mi Calm Calm - N/A   Clear
6:24 AM 45.0 °F 44.1 °F 97% 29.84 in 0.5 mi Calm Calm - N/A Fog Fog
6:50 AM 42.8 °F 42.8 °F 100% 29.84 in 0.2 mi Calm Calm - N/A Fog Fog
6:52 AM 43.0 °F 43.0 °F 100% 29.84 in 0.2 mi Calm Calm - N/A Fog Fog
7:02 AM 44.1 °F 44.1 °F 100% 29.84 in 1.8 mi Calm Calm - N/A   Partly Cloudy
7:13 AM 46.0 °F 45.0 °F 96% 29.84 in 2.5 mi Calm Calm - N/A   Partly Cloudy
7:21 AM 45.0 °F 45.0 °F 100% 29.84 in 4.0 mi Calm Calm - N/A   Clear
7:52 AM 51.1 °F 50.0 °F 96% 29.83 in 9.0 mi Variable 3.5 mph - N/A   Clear
8:52 AM 54.0 °F 53.1 °F 97% 29.84 in 10.0 mi Variable 5.8 mph - N/A   Clear
9:52 AM 59.0 °F 54.0 °F 83% 29.83 in 10.0 mi Variable 6.9 mph - N/A   Clear
10:52 AM 64.0 °F 55.0 °F 73% 29.82 in 10.0 mi Variable 6.9 mph - N/A   Clear
11:52 AM 68.0 °F 55.0 °F 63% 29.79 in 10.0 mi SSE 11.5 mph 20.7 mph N/A   Clear
12:52 PM 71.1 °F 57.0 °F 61% 29.74 in 10.0 mi SSE 9.2 mph 21.9 mph N/A   Clear
1:52 PM 73.9 °F 55.9 °F 53% 29.70 in 10.0 mi SSE 9.2 mph 20.7 mph N/A   Clear
2:52 PM 75.9 °F 55.0 °F 48% 29.66 in 10.0 mi Variable 6.9 mph 20.7 mph N/A   Clear
3:52 PM 75.9 °F 54.0 °F 46% 29.62 in 10.0 mi SSE 10.4 mph 19.6 mph N/A   Clear
4:52 PM 73.9 °F 53.1 °F 48% 29.60 in 10.0 mi SSE 8.1 mph 18.4 mph N/A   Clear
5:52 PM 72.0 °F 54.0 °F 53% 29.59 in 10.0 mi SE 5.8 mph - N/A   Clear
6:52 PM 64.9 °F 55.0 °F 70% 29.62 in 10.0 mi Calm Calm - N/A   Clear
7:52 PM 63.0 °F 55.0 °F 75% 29.62 in 10.0 mi SE 3.5 mph - N/A   Clear
8:52 PM 66.0 °F 54.0 °F 65% 29.57 in 10.0 mi ESE 4.6 mph - N/A   Clear
9:52 PM 66.0 °F 55.0 °F 68% 29.52 in 10.0 mi Variable 3.5 mph - N/A   Overcast
10:52 PM 64.0 °F 59.0 °F 84% 29.60 in 6.0 mi West 12.7 mph 31.1 mph 0.02 in Rain , Thunderstorm Rain
11:03 PM 62.1 °F 59.0 °F 90% 29.63 in 2.5 mi WNW 9.2 mph - 0.06 in Rain Heavy Rain
11:20 PM 61.0 °F 60.1 °F 97% 29.58 in 4.0 mi Calm Calm - 0.15 in Rain , Thunderstorm Rain
11:52 PM 61.0 °F 60.1 °F 97% 29.56 in 10.0 mi NW 6.9 mph - 0.19 in Rain Light Rain